Weather History for Minneapolis, MN

Change the Weather History Date:

Monday, March 3, 2014

  Actual Average Record
Temperature  
Mean Temperature 0 °F 27 °F  
Max Temperature 10 °F 35 °F 65 °F (1905)
Min Temperature -10 °F 19 °F -13 °F (1873)
Degree Days  
Heating Degree Days 65 38  
Month to date heating degree days 200 115  
Since 1 July heating degree days 6653 5905  
Cooling Degree Days 0 0  
Month to date cooling degree days 0 0  
Year to date cooling degree days 0 0  
Moisture  
Dew Point -6 °F    
Average Humidity 69    
Maximum Humidity 83    
Minimum Humidity 55    
Precipitation  
Precipitation 0.02 in 0.05 in 1.19 in (1970)
Month to date precipitation 0.02 0.15  
Year to date precipitation 2.85 1.82  
Snow  
Snow 0.30 in 0.40 in 12.60 in (1985)
Month to date snowfall 0.3 1.2  
Since 1 July snowfall 58.4 42.9  
Snow Depth 19.00 in    
Sea Level Pressure  
Sea Level Pressure 30.46 in    
Wind  
Wind Speed 5 mph (SSE)    
Max Wind Speed 12 mph    
Max Gust Speed 15 mph    
Visibility 8 miles    
Events Snow    
T = Trace of Precipitation, MM = Missing Value Source: NWS Daily Summary

Daily Weather History Graph

Daily Weather History Graph

Search for Another Location

Airport:

Trip Planner

Search our weather history database for the weather conditions in past years. The results will help you decide how hot, cold, wet, or windy it might be!

Date:

Astronomy

Mar. 03, 2014 Rise Set
Actual Time 6:47 AM CST 6:03 PM CST
Civil Twilight 6:17 AM CST 6:32 PM CST
Nautical Twilight 5:43 AM CST 7:06 PM CST
Astronomical Twilight 5:09 AM CST 7:40 PM CST
Moon 7:47 AM CST (3/3) 9:16 PM CST (3/3)
Length of Visible Light 12h 14m
Length of Day
11h 16m
Waxing Crescent, 8% of the Moon is Illuminated
Mar 3
Waxing Crescent
Mar 8
First Quarter
Mar 16
Full
Mar 23
Last Quarter
Mar 30
New

Hourly Weather History & Observations

Time (CST) Temp. Windchill Dew Point Humidity Pressure Visibility Wind Dir Wind Speed Gust Speed Precip Events Conditions
12:53 AM -7.1 °F -18.1 °F -14.1 °F 72% 30.60 in 10.0 mi NW 4.6 mph - N/A   Clear
1:53 AM -7.1 °F -15.9 °F -14.1 °F 72% 30.61 in 10.0 mi WNW 3.5 mph - N/A   Clear
2:53 AM -7.1 °F -15.9 °F -13.0 °F 75% 30.61 in 10.0 mi WSW 3.5 mph - N/A   Clear
3:53 AM -8.0 °F - -14.1 °F 75% 30.61 in 7.0 mi Calm Calm - N/A   Clear
4:53 AM -9.0 °F -20.4 °F -13.0 °F 83% 30.61 in 10.0 mi SW 4.6 mph - N/A   Partly Cloudy
5:53 AM -9.9 °F - -14.1 °F 82% 30.60 in 10.0 mi Calm Calm - N/A   Scattered Clouds
6:53 AM -8.0 °F - -11.9 °F 83% 30.58 in 10.0 mi Calm Calm - N/A   Mostly Cloudy
7:53 AM -6.0 °F - -11.0 °F 79% 30.57 in 10.0 mi Calm Calm - N/A   Mostly Cloudy
8:53 AM -4.0 °F - -9.9 °F 76% 30.56 in 9.0 mi Calm Calm - N/A   Overcast
9:53 AM -2.9 °F - -11.0 °F 68% 30.56 in 9.0 mi Calm Calm - N/A   Overcast
10:53 AM -0.0 °F - -9.0 °F 66% 30.55 in 10.0 mi Calm Calm - N/A   Overcast
11:53 AM 3.0 °F -9.3 °F -8.0 °F 60% 30.53 in 10.0 mi South 6.9 mph - N/A   Overcast
12:53 PM 5.0 °F -4.1 °F -7.1 °F 58% 30.50 in 10.0 mi SSE 4.6 mph - N/A   Overcast
1:53 PM 9.0 °F -2.2 °F -5.1 °F 53% 30.48 in 10.0 mi South 6.9 mph - N/A   Mostly Cloudy
2:53 PM 9.0 °F -5.1 °F -5.1 °F 53% 30.45 in 10.0 mi SSE 10.4 mph - N/A   Overcast
3:53 PM 9.0 °F -2.2 °F -4.0 °F 56% 30.43 in 10.0 mi SSE 6.9 mph - N/A   Overcast
4:53 PM 9.0 °F -3.2 °F -2.9 °F 59% 30.40 in 10.0 mi SE 8.1 mph - N/A   Overcast
5:53 PM 8.1 °F -4.3 °F -2.0 °F 64% 30.39 in 10.0 mi SE 8.1 mph - N/A   Overcast
6:53 PM 7.0 °F -4.5 °F -2.9 °F 64% 30.39 in 10.0 mi SE 6.9 mph - N/A   Overcast
7:18 PM 6.8 °F -6.9 °F -0.4 °F 72% 30.31 in 2.5 mi SE 9.2 mph - 0.00 in Snow Light Snow
7:34 PM 6.8 °F -4.8 °F 1.4 °F 79% 30.31 in 3.0 mi SE 6.9 mph - 0.01 in Snow Light Snow
7:41 PM 6.8 °F -3.5 °F 1.4 °F 79% 30.30 in 2.5 mi SE 5.8 mph - 0.01 in Snow Light Snow
7:48 PM 6.8 °F -4.8 °F 1.4 °F 79% 30.30 in 3.0 mi SE 6.9 mph - 0.01 in Snow Light Snow
7:53 PM 7.0 °F -4.5 °F 1.0 °F 77% 30.37 in 6.0 mi ESE 6.9 mph - 0.01 in Snow Light Snow
8:53 PM 7.0 °F -6.6 °F -0.0 °F 73% 30.35 in 4.0 mi SE 9.2 mph - 0.00 in Snow Light Snow
9:36 PM 6.8 °F -6.9 °F 1.4 °F 79% 30.27 in 2.5 mi SE 9.2 mph - 0.00 in Snow Light Snow
9:53 PM 6.1 °F -6.8 °F 1.0 °F 80% 30.33 in 3.0 mi SE 8.1 mph - 0.00 in Snow Light Snow
10:53 PM 7.0 °F -6.6 °F 1.0 °F 77% 30.32 in 9.0 mi SE 9.2 mph - 0.01 in   Overcast
11:53 PM 7.0 °F -4.5 °F -0.0 °F 73% 30.31 in 10.0 mi SSE 6.9 mph - N/A   Overcast